UAL24 ZSPD-ZBLA

Flight info

Callsign UAL24
Flight time N/A
Altitude 38100
Route IBEGI B221 XDX/K0848S1130 DCT URBAD W172 VEPGI/K0846S1190 W172 IGDEG W173 NIXEP W8 DOBGA W202 UDETI A588 HRB/K0854S1220 B451 HLD
Aircraft B737/M-SDE2E3FGHIRWXY/LB1

Departure

Time 2026-05-05 13:16
Airport Shanghai Pudong International Airport (ZSPD)

Arrival

Time N/A
Airport Hulunbuir Hailar Airport (ZBLA)
Time Latitude Longitude Altitude Speed Heading
2026-05-05 13:15 31.04052 122.10071 18536 ft 402 kts 339°
2026-05-05 13:16 31.06698 122.09074 19233 ft 407 kts 339°
2026-05-05 13:16 31.09415 122.08062 19882 ft 413 kts 339°
2026-05-05 13:16 31.12175 122.07037 20529 ft 418 kts 339°
2026-05-05 13:16 31.14961 122.06001 21168 ft 423 kts 339°
2026-05-05 13:17 31.17787 122.04949 21748 ft 428 kts 339°
2026-05-05 13:17 31.20638 122.03888 22322 ft 432 kts 338°
2026-05-05 13:17 31.23516 122.02814 22874 ft 436 kts 338°
2026-05-05 13:17 31.26419 122.01728 23422 ft 440 kts 338°
2026-05-05 13:18 31.29349 122.00632 23954 ft 444 kts 338°
2026-05-05 13:18 31.32302 121.99527 24476 ft 447 kts 339°
2026-05-05 13:18 31.35270 121.98416 25036 ft 449 kts 339°
2026-05-05 13:18 31.38217 121.97312 25557 ft 451 kts 338°
2026-05-05 13:19 31.41218 121.96183 25997 ft 455 kts 338°
2026-05-05 13:19 31.44257 121.95034 26402 ft 459 kts 338°
2026-05-05 13:19 31.47306 121.93877 26796 ft 463 kts 338°
2026-05-05 13:19 31.50381 121.92709 27189 ft 466 kts 338°
2026-05-05 13:20 31.53482 121.91532 27601 ft 468 kts 338°
2026-05-05 13:20 31.56593 121.90350 27965 ft 472 kts 338°
2026-05-05 13:20 31.59728 121.89159 28303 ft 475 kts 338°
2026-05-05 13:20 31.62882 121.87960 28641 ft 478 kts 338°
2026-05-05 13:21 31.66057 121.86753 28994 ft 480 kts 338°
2026-05-05 13:21 31.69229 121.85547 29448 ft 479 kts 338°
2026-05-05 13:21 31.72358 121.84356 29943 ft 478 kts 338°
2026-05-05 13:21 31.75520 121.83151 30442 ft 476 kts 338°
2026-05-05 13:22 31.78673 121.81948 30879 ft 477 kts 337°
2026-05-05 13:22 31.81836 121.80740 31306 ft 477 kts 337°
2026-05-05 13:22 31.84990 121.79536 31748 ft 477 kts 337°
2026-05-05 13:22 31.88159 121.78381 32184 ft 479 kts 341°
2026-05-05 13:23 31.91473 121.77721 32581 ft 485 kts 348°
2026-05-05 13:23 31.94834 121.77321 32965 ft 487 kts 350°
2026-05-05 13:23 31.98210 121.77014 33346 ft 487 kts 350°
2026-05-05 13:23 32.01596 121.76720 33724 ft 487 kts 350°
2026-05-05 13:24 32.04971 121.76403 34085 ft 486 kts 349°
2026-05-05 13:24 32.08335 121.76057 34476 ft 485 kts 349°
2026-05-05 13:24 32.11692 121.75687 34813 ft 484 kts 348°
2026-05-05 13:24 32.15042 121.75299 35175 ft 484 kts 348°
2026-05-05 13:25 32.18350 121.74907 35495 ft 483 kts 348°
2026-05-05 13:25 32.21696 121.74506 35810 ft 483 kts 348°
2026-05-05 13:25 32.25040 121.74106 36129 ft 483 kts 348°
2026-05-05 13:25 32.28377 121.73708 36468 ft 482 kts 348°
2026-05-05 13:26 32.31728 121.73309 36767 ft 482 kts 348°
2026-05-05 13:26 32.35059 121.72914 37168 ft 478 kts 348°
2026-05-05 13:26 32.38353 121.72525 37588 ft 474 kts 348°
2026-05-05 13:26 32.41623 121.72138 37981 ft 471 kts 348°
2026-05-05 13:27 32.44885 121.71750 38113 ft 474 kts 348°
2026-05-05 13:27 32.48134 121.71360 38114 ft 476 kts 348°
2026-05-05 13:27 32.54715 121.70575 38115 ft 472 kts 348°
2026-05-05 13:28 32.61237 121.69800 38120 ft 469 kts 348°
2026-05-05 13:28 32.67719 121.69027 38119 ft 466 kts 348°
2026-05-05 13:29 32.74178 121.68255 38118 ft 465 kts 348°
2026-05-05 13:29 32.80563 121.67490 38119 ft 464 kts 348°
2026-05-05 13:30 32.86988 121.66719 38121 ft 463 kts 348°
2026-05-05 13:30 32.93416 121.65947 38120 ft 463 kts 349°
2026-05-05 13:31 32.99840 121.65173 38120 ft 464 kts 349°
2026-05-05 13:31 33.06265 121.64399 38119 ft 465 kts 349°
2026-05-05 13:32 33.12705 121.63622 38120 ft 465 kts 349°
2026-05-05 13:32 33.19103 121.62849 38119 ft 465 kts 349°
2026-05-05 13:33 33.25525 121.61967 38103 ft 460 kts 341°
2026-05-05 13:33 33.31375 121.59172 38103 ft 452 kts 331°
2026-05-05 13:34 33.37100 121.56082 38106 ft 452 kts 331°
2026-05-05 13:34 33.42865 121.53050 38107 ft 452 kts 332°
2026-05-05 13:35 33.48631 121.50067 38111 ft 452 kts 332°
2026-05-05 13:35 33.54404 121.47083 38107 ft 451 kts 332°
2026-05-05 13:36 33.60164 121.44099 38108 ft 451 kts 332°
2026-05-05 13:36 33.65891 121.41126 38103 ft 451 kts 332°
2026-05-05 13:37 33.71704 121.38240 38099 ft 452 kts 334°
2026-05-05 13:37 33.77573 121.35507 38082 ft 452 kts 334°
2026-05-05 13:38 33.83444 121.32771 38078 ft 452 kts 334°
2026-05-05 13:38 33.89311 121.30004 38050 ft 452 kts 334°
2026-05-05 13:39 33.95122 121.27247 38043 ft 451 kts 334°
2026-05-05 13:39 34.00970 121.24464 38046 ft 451 kts 334°
2026-05-05 13:40 34.06803 121.21684 38047 ft 450 kts 335°
2026-05-05 13:40 34.12616 121.18912 38042 ft 448 kts 335°
2026-05-05 13:41 34.18415 121.16145 38035 ft 447 kts 335°
2026-05-05 13:41 34.24167 121.13393 38034 ft 447 kts 335°
2026-05-05 13:42 34.29945 121.10626 38034 ft 446 kts 335°
2026-05-05 13:42 34.35720 121.07855 38035 ft 446 kts 335°
2026-05-05 13:43 34.41475 121.05091 38035 ft 445 kts 335°
2026-05-05 13:43 34.47232 121.02321 38034 ft 445 kts 335°
2026-05-05 13:44 34.52986 120.99548 38026 ft 445 kts 335°
2026-05-05 13:44 34.58727 120.96778 38021 ft 444 kts 335°
2026-05-05 13:45 34.64466 120.94005 38027 ft 444 kts 335°
2026-05-05 13:45 34.70202 120.91229 38029 ft 443 kts 335°
2026-05-05 13:46 34.75927 120.88456 38022 ft 443 kts 335°
2026-05-05 13:46 34.77829 120.87533 38027 ft 443 kts 335°